Location: G�ppingen
(48.7089°N, 9.6563°E)
Time: 18:23:36
(UTC+02:00)

LilacSat-2 - Visible Passes

Search period start: 22 October 2019 00:00
Search period end: 31 October 2019 23:00
Orbit: 512 x 536 km, 97.5° (Epoch: 22 October)

Date Brightness Start Highest point End Pass type
(mag) Time Alt. Az. Time Alt. Az. Time Alt. Az.
22 Oct ? 06:31:05 10° NE 06:34:05 22° E 06:37:03 10° SSE visible
22 Oct ? 18:49:48 10° SSW 18:53:21 37° W 18:56:55 10° NNW visible
23 Oct ? 06:19:19 10° NE 06:21:48 17° E 06:24:17 10° SE visible
24 Oct ? 06:07:51 10° ENE 06:09:30 12° E 06:11:10 10° ESE visible
26 Oct ? 07:16:03 10° NNE 07:19:49 72° ESE 07:23:33 10° S visible
26 Oct ? 19:37:32 10° WSW 19:39:15 13° W 19:40:58 10° WNW visible
27 Oct ? 06:03:56 10° NNE 06:07:37 51° E 06:11:17 10° S visible
27 Oct ? 18:24:27 10° SW 18:26:58 17° W 18:29:29 10° NW visible
28 Oct ? 05:51:53 10° NNE 05:55:25 37° E 05:58:55 10° SSE visible
28 Oct ? 18:11:40 10° SSW 18:14:41 22° W 18:17:43 10° NW visible
29 Oct ? 05:39:54 10° NE 05:43:10 27° E 05:46:25 10° SSE visible
29 Oct ? 17:59:05 10° SSW 18:02:26 30° W 18:05:48 10° NNW visible
30 Oct ? 05:28:01 10° NE 05:30:55 21° E 05:33:48 10° SE visible
30 Oct ? 17:46:38 10° S 17:50:13 40° W 17:53:48 10° NNW visible
31 Oct ? 05:16:18 10° NE 05:18:38 16° E 05:20:57 10° SE visible
31 Oct ? 17:34:17 10° S 17:38:00 56° W 17:41:44 10° NNW visible
